When you browse on this site, cookies collect data to enhance your experience and personalize the content and advertising you see.
Visit our Privacy Policy to learn more. By continuing to use the site, you agree to this use of cookies and data.
  • In Italy
  • List of Countries
  • For 7 days
  • Water Temperature
  • Satellite Maps
  • Weather Map
  • Weather Widgets
  • user-avatar
    Login

    Hourly Weather Río Gallegos

    Today, 12 December, Wednesday

    Time Temperature Precipitation Wind Pressure Humidity
    00:00 +12°C° 0.1 mm 5 mps 755 mmHg 60%
    01:00 +12°C° 0 mm 5 mps 754 mmHg 60%
    02:00 +12°C° 0 mm 5 mps 754 mmHg 59%
    03:00 +11°C° 0 mm 6 mps 754 mmHg 58%
    04:00 +11°C° 0 mm 6 mps 754 mmHg 57%
    05:00 +13°C° 0 mm 6 mps 754 mmHg 54%
    06:00 +14°C° 0 mm 6 mps 754 mmHg 51%
    07:00 +15°C° 0 mm 7 mps 754 mmHg 48%
    08:00 +16°C° 0 mm 6 mps 753 mmHg 44%
    09:00 +17°C° 0 mm 6 mps 753 mmHg 41%
    10:00 +19°C° 0 mm 5 mps 752 mmHg 38%
    11:00 +19°C° 0 mm 6 mps 752 mmHg 38%
    12:00 +19°C° 0 mm 6 mps 752 mmHg 39%
    13:00 +19°C° 0 mm 6 mps 751 mmHg 39%
    14:00 +19°C° 0 mm 6 mps 751 mmHg 41%
    15:00 +19°C° 0 mm 6 mps 750 mmHg 42%
    16:00 +17°C° 0 mm 6 mps 750 mmHg 44%
    17:00 +16°C° 0 mm 5 mps 749 mmHg 47%
    18:00 +17°C° 0 mm 4 mps 749 mmHg 51%
    19:00 +16°C° 0 mm 3 mps 749 mmHg 54%
    20:00 +15°C° 0 mm 4 mps 749 mmHg 57%
    21:00 +14°C° 0 mm 5 mps 749 mmHg 60%
    22:00 +13°C° 0 mm 6 mps 749 mmHg 63%
    23:00 +13°C° 0 mm 5 mps 748 mmHg 66%

    Tomorrow, 13 December, Thursday

    Time Temperature Precipitation Wind Pressure Humidity
    00:00 +12°C° 0 mm 5 mps 748 mmHg 68%
    01:00 +12°C° 0 mm 4 mps 748 mmHg 71%
    02:00 +12°C° 0 mm 4 mps 748 mmHg 73%
    03:00 +11°C° 0 mm 4 mps 748 mmHg 75%
    04:00 +11°C° 0 mm 3 mps 748 mmHg 77%
    05:00 +11°C° 0.1 mm 4 mps 748 mmHg 75%
    06:00 +12°C° 0.1 mm 4 mps 749 mmHg 73%
    07:00 +12°C° 0.1 mm 5 mps 749 mmHg 71%
    08:00 +12°C° 0.1 mm 5 mps 750 mmHg 69%
    09:00 +11°C° 0.1 mm 6 mps 750 mmHg 67%
    10:00 +13°C° 0.1 mm 6 mps 750 mmHg 65%
    11:00 +12°C° 0 mm 7 mps 751 mmHg 58%
    12:00 +14°C° 0 mm 7 mps 751 mmHg 52%
    13:00 +15°C° 0 mm 7 mps 752 mmHg 45%
    14:00 +15°C° 0 mm 7 mps 752 mmHg 43%
    15:00 +15°C° 0 mm 7 mps 752 mmHg 40%
    16:00 +15°C° 0 mm 7 mps 753 mmHg 37%
    17:00 +14°C° 0 mm 7 mps 753 mmHg 38%
    18:00 +13°C° 0 mm 6 mps 754 mmHg 40%
    19:00 +13°C° 0 mm 6 mps 754 mmHg 42%
    20:00 +11°C° 0 mm 6 mps 755 mmHg 45%
    21:00 +10°C° 0 mm 5 mps 755 mmHg 48%
    22:00 +9°C° 0 mm 5 mps 756 mmHg 51%
    23:00 +8°C° 0 mm 4 mps 756 mmHg 54%

    Day after tomorrow, 14 December, Friday

    Time Temperature Precipitation Wind Pressure Humidity
    00:00 +8°C° 0 mm 4 mps 756 mmHg 56%
    01:00 +8°C° 0 mm 3 mps 755 mmHg 58%
    02:00 +8°C° 0 mm 3 mps 755 mmHg 58%
    03:00 +8°C° 0 mm 3 mps 755 mmHg 59%
    04:00 +7°C° 0 mm 3 mps 755 mmHg 59%
    05:00 +8°C° 0 mm 4 mps 755 mmHg 55%
    06:00 +9°C° 0 mm 5 mps 755 mmHg 51%
    07:00 +10°C° 0 mm 5 mps 754 mmHg 46%
    08:00 +13°C° 0 mm 6 mps 754 mmHg 44%
    09:00 +13°C° 0 mm 8 mps 754 mmHg 42%
    10:00 +16°C° 0 mm 9 mps 753 mmHg 40%
    11:00 +15°C° 0.1 mm 8 mps 753 mmHg 42%
    12:00 +15°C° 0.1 mm 8 mps 752 mmHg 43%
    13:00 +15°C° 0.1 mm 8 mps 752 mmHg 44%
    14:00 +16°C° 0.2 mm 7 mps 752 mmHg 46%
    15:00 +16°C° 0.2 mm 7 mps 751 mmHg 48%
    16:00 +16°C° 0.2 mm 6 mps 751 mmHg 51%
    17:00 +16°C° 0.2 mm 5 mps 751 mmHg 54%
    18:00 +15°C° 0.2 mm 4 mps 751 mmHg 57%
    19:00 +16°C° 0.2 mm 3 mps 751 mmHg 60%
    20:00 +16°C° 0.1 mm 3 mps 751 mmHg 61%
    21:00 +14°C° 0.1 mm 3 mps 751 mmHg 62%
    22:00 +14°C° 0.1 mm 3 mps 751 mmHg 63%
    23:00 +13°C° 0.2 mm 4 mps 750 mmHg 65%

    15 December, Saturday

    Time Temperature Precipitation Wind Pressure Humidity
    00:00 +13°C° 0.2 mm 4 mps 750 mmHg 67%
    01:00 +13°C° 0.2 mm 5 mps 749 mmHg 69%
    02:00 +13°C° 0 mm 5 mps 748 mmHg 65%
    03:00 +14°C° 0 mm 6 mps 748 mmHg 62%
    04:00 +14°C° 0 mm 6 mps 747 mmHg 59%
    05:00 +14°C° 0.3 mm 7 mps 746 mmHg 60%
    06:00 +14°C° 0.3 mm 7 mps 746 mmHg 61%
    07:00 +15°C° 0.3 mm 7 mps 745 mmHg 63%
    08:00 +16°C° 0.2 mm 9 mps 744 mmHg 59%
    09:00 +18°C° 0.2 mm 10 mps 743 mmHg 55%
    10:00 +19°C° 0.2 mm 11 mps 743 mmHg 51%
    11:00 +19°C° 0.1 mm 11 mps 742 mmHg 50%
    12:00 +19°C° 0.1 mm 11 mps 741 mmHg 49%
    13:00 +21°C° 0.1 mm 11 mps 740 mmHg 48%
    14:00 +21°C° 0 mm 11 mps 739 mmHg 46%
    15:00 +21°C° 0 mm 12 mps 739 mmHg 43%
    16:00 +20°C° 0 mm 13 mps 738 mmHg 40%
    17:00 +19°C° 0 mm 13 mps 738 mmHg 42%
    18:00 +18°C° 0 mm 13 mps 737 mmHg 43%
    19:00 +15°C° 0 mm 13 mps 737 mmHg 45%
    20:00 +13°C° 0 mm 15 mps 738 mmHg 48%
    21:00 +10°C° 0 mm 16 mps 738 mmHg 51%
    22:00 +7°C° 0 mm 17 mps 738 mmHg 54%
    23:00 +6°C° 0 mm 18 mps 739 mmHg 55%

    16 December, Sunday

    Time Temperature Precipitation Wind Pressure Humidity
    00:00 +6°C° 0 mm 18 mps 740 mmHg 57%
    01:00 +5°C° 0 mm 18 mps 741 mmHg 58%
    02:00 +3°C° 0 mm 17 mps 742 mmHg 57%
    03:00 +4°C° 0 mm 16 mps 743 mmHg 56%
    04:00 +2°C° 0 mm 15 mps 744 mmHg 55%
    05:00 +4°C° 0.1 mm 15 mps 745 mmHg 54%
    06:00 +4°C° 0.1 mm 15 mps 746 mmHg 54%
    07:00 +5°C° 0.1 mm 16 mps 747 mmHg 54%
    08:00 +5°C° 0.1 mm 16 mps 748 mmHg 50%
    09:00 +5°C° 0.1 mm 16 mps 749 mmHg 46%
    10:00 +6°C° 0.1 mm 16 mps 750 mmHg 42%
    11:00 +6°C° 0 mm 17 mps 750 mmHg 42%
    12:00 +6°C° 0 mm 17 mps 751 mmHg 41%
    13:00 +6°C° 0 mm 17 mps 751 mmHg 41%
    14:00 +6°C° 0 mm 17 mps 752 mmHg 41%
    15:00 +6°C° 0 mm 17 mps 753 mmHg 41%
    16:00 +6°C° 0 mm 17 mps 753 mmHg 42%
    17:00 +5°C° 0 mm 17 mps 754 mmHg 43%
    18:00 +5°C° 0 mm 17 mps 755 mmHg 45%
    19:00 +5°C° 0 mm 17 mps 756 mmHg 47%
    20:00 +4°C° 0 mm 16 mps 756 mmHg 51%
    21:00 +4°C° 0 mm 16 mps 757 mmHg 55%
    22:00 +2°C° 0 mm 15 mps 757 mmHg 59%
    23:00 +3°C° 0 mm 14 mps 757 mmHg 60%

    17 December, Monday

    Time Temperature Precipitation Wind Pressure Humidity
    00:00 +3°C° 0 mm 14 mps 758 mmHg 61%
    01:00 +3°C° 0 mm 13 mps 758 mmHg 63%
    02:00 +3°C° 0 mm 13 mps 758 mmHg 63%
    03:00 +3°C° 0 mm 13 mps 758 mmHg 63%
    04:00 +3°C° 0 mm 13 mps 759 mmHg 63%
    05:00 +4°C° 0 mm 13 mps 759 mmHg 60%
    06:00 +5°C° 0 mm 14 mps 759 mmHg 57%
    07:00 +6°C° 0 mm 15 mps 759 mmHg 54%
    08:00 +8°C° 0 mm 14 mps 759 mmHg 52%
    09:00 +9°C° 0 mm 14 mps 759 mmHg 50%
    10:00 +10°C° 0 mm 14 mps 759 mmHg 48%
    11:00 +10°C° 0 mm 13 mps 758 mmHg 47%
    12:00 +12°C° 0 mm 12 mps 758 mmHg 47%
    13:00 +12°C° 0 mm 12 mps 757 mmHg 46%
    14:00 +13°C° 0 mm 11 mps 757 mmHg 44%
    15:00 +13°C° 0 mm 11 mps 756 mmHg 42%
    16:00 +13°C° 0 mm 10 mps 756 mmHg 40%
    17:00 +11°C° 1.3 mm 8 mps 755 mmHg 54%
    18:00 +9°C° 1.3 mm 7 mps 754 mmHg 67%
    19:00 +7°C° 1.3 mm 5 mps 754 mmHg 81%
    20:00 +7°C° 1.9 mm 6 mps 753 mmHg 82%
    21:00 +6°C° 1.9 mm 7 mps 752 mmHg 83%
    22:00 +8°C° 1.9 mm 7 mps 752 mmHg 85%
    23:00 +8°C° 0.1 mm 7 mps 751 mmHg 84%
    Show more